EW3394 Weather Reports


Display with metric or nautical units.
time (UTC)temp
F
wind
direction
speed
MPH
gust
MPH
rain 1hr
in
rain 24hr
in
rain mn
in
humidity
%
barometer
mb
20260506191504 61 151 2.0 8.0 0.07 0.29 0.29 94 1005.2
20260506190008 61 248 1.0 7.0 0.08 0.29 0.29 94 1005.3
20260506184510 61 360 1.0 12.0 0.07 0.27 0.27 94 1005.2
20260506183012 62 148 2.0 9.0 0.03 0.23 0.23 93 1005.4
20260506181510 62 235 1.0 11.0 0.03 0.22 0.22 93 1005.5
20260506180006 62 136 1.0 6.0 0.02 0.21 0.21 94 1005.7
20260506174510 62 360 1.0 8.0 0.03 0.20 0.20 94 1005.6
20260506173021 62 88 0.0 8.0 0.07 0.20 0.20 94 1005.7
20260506171518 62 161 1.0 6.0 0.07 0.19 0.19 93 1005.9
20260506170016 62 237 1.0 9.0 0.09 0.19 0.19 94 1005.8
20260506164514 62 104 2.0 10.0 0.09 0.17 0.17 93 1006.2
20260506163012 62 229 2.0 8.0 0.08 0.13 0.13 92 1006.6
20260506161514 62 148 2.0 8.0 0.09 0.12 0.12 92 1006.7
20260506160031 62 195 1.0 5.0 0.09 0.10 0.10 92 1006.9
20260506154523 63 360 1.0 10.0 0.08 0.08 0.08 91 1007.2
20260506153010 63 155 1.0 4.0 0.05 0.05 0.05 90 1007.1
20260506151517 63 195 0.0 6.0 0.03 0.03 0.03 88 1007.1
20260506150020 64 163 1.0 9.0 0.01 0.01 0.01 86 1007.2
20260506144517 64 169 1.0 5.0 0.00 0.00 0.00 84 1007.3
20260506143016 65 200 1.0 9.0 0.00 0.00 0.00 81 1007.6
20260506141513 66 360 1.0 8.0 0.00 0.00 0.00 78 1007.6
20260506140016 67 117 2.0 9.0 0.00 0.00 0.00 76 1007.5
20260506134524 67 209 2.0 8.0 0.00 0.00 0.00 76 1007.3
20260506133020 66 360 2.0 16.0 0.00 0.00 0.00 78 1007.0
20260506131537 66 142 2.0 13.0 0.00 0.00 0.00 77 1007.1
20260506130019 65 360 2.0 9.0 0.00 0.00 0.00 79 1007.1
20260506124520 65 360 1.0 8.0 0.00 0.00 0.00 79 1007.1
20260506123022 64 196 2.0 12.0 0.00 0.00 0.00 80 1007.5
20260506121521 63 179 1.0 9.0 0.00 0.00 0.00 80 1007.8
20260506120021 63 192 2.0 7.0 0.00 0.00 0.00 81 1007.7
20260506114521 62 123 2.0 11.0 0.00 0.00 0.00 83 1007.5
20260506113024 60 167 2.0 9.0 0.00 0.00 0.00 87 1007.4
20260506111506 57 101 1.0 5.0 0.00 0.00 0.00 93 1007.2
20260506110007 54 360 0.0 0.0 0.00 0.00 0.00 93 1007.3
20260506104510 53 341 0.0 0.0 0.00 0.00 0.00 93 1007.2
20260506103031 52 360 0.0 0.0 0.00 0.00 0.00 93 1007.2
20260506101506 52 360 0.0 0.0 0.00 0.00 0.00 92 1007.4
20260506100010 52 340 0.0 0.0 0.00 0.00 0.00 92 1007.3
20260506094512 51 342 0.0 0.0 0.00 0.00 0.00 91 1007.2
20260506093020 52 342 0.0 0.0 0.00 0.00 0.00 90 1007.2
20260506091518 52 342 0.0 0.0 0.00 0.00 0.00 90 1007.2
20260506090026 52 342 0.0 0.0 0.00 0.00 0.00 88 1007.3
20260506084510 53 342 0.0 0.0 0.00 0.00 0.00 88 1007.6
20260506083014 54 342 0.0 2.0 0.00 0.00 0.00 86 1007.7
20260506081515 55 342 0.0 2.0 0.00 0.00 0.00 84 1007.7
20260506073012 58 360 0.0 3.0 0.00 0.00 0.00 79 1007.8
20260506071514 59 360 0.0 4.0 0.00 0.00 0.00 77 1008.1
20260506061515 60 360 1.0 4.0 0.00 0.00 0.00 79 1008.5
20260506044522 66 360 3.0 8.0 0.00 0.00 0.00 72 1008.3
20260506043024 70 76 0.0 3.0 0.00 0.00 0.00 56 1008.2
20260506041527 71 276 0.0 7.0 0.00 0.00 0.00 50 1007.7
20260506040027 70 270 0.0 4.0 0.00 0.00 0.00 51 1007.4
20260506034519 70 274 0.0 3.0 0.00 0.00 0.00 51 1007.1
20260506033023 72 291 1.0 6.0 0.00 0.00 0.00 49 1007.0
20260506031526 71 167 1.0 8.0 0.00 0.00 0.00 47 1007.0
20260506030033 68 238 2.0 9.0 0.00 0.00 0.00 52 1006.9
20260506024540 64 282 0.0 3.0 0.00 0.00 0.00 72 1006.9
20260506023021 65 51 0.0 1.0 0.00 0.00 0.00 73 1007.1
20260506021523 66 53 0.0 1.0 0.00 0.00 0.00 70 1007.2
20260506020024 67 51 0.0 3.0 0.00 0.00 0.00 68 1007.2
20260506014532 67 352 0.0 2.0 0.00 0.00 0.00 67 1007.2
20260506013028 66 360 0.0 4.0 0.00 0.00 0.00 70 1006.9
20260506011523 66 360 0.0 2.0 0.00 0.00 0.00 69 1006.8
20260506010008 66 360 0.0 2.0 0.00 0.00 0.00 67 1006.8
20260506004507 67 360 0.0 2.0 0.00 0.00 0.00 65 1006.7
20260506003016 67 360 1.0 2.0 0.00 0.00 0.00 64 1006.5
20260506001522 68 360 0.0 2.0 0.00 0.00 0.00 62 1006.4
20260506000024 70 32 0.0 2.0 0.00 0.00 0.00 59 1006.3
20260505234506 71 30 0.0 2.0 0.00 0.00 0.00 56 1006.2
20260505233008 72 13 1.0 4.0 0.00 0.00 0.00 53 1005.9
20260505231515 74 76 0.0 7.0 0.00 0.00 0.00 48 1005.9
20260505230043 77 144 0.0 4.0 0.00 0.00 0.00 42 1005.6
20260505224525 78 244 0.0 8.0 0.00 0.00 0.00 37 1005.4
20260505223008 79 190 1.0 5.0 0.00 0.00 0.00 35 1005.3
20260505221514 79 204 3.0 9.0 0.00 0.00 0.00 34 1004.8
20260505220024 80 32 4.0 14.0 0.00 0.00 0.00 33 1004.6
20260505214526 80 299 2.0 18.0 0.00 0.00 0.00 33 1004.3
20260505213023 81 235 6.0 15.0 0.00 0.00 0.00 32 1004.1
20260505211514 82 175 2.0 10.0 0.00 0.00 0.00 35 1003.9
20260505210015 82 194 6.0 18.0 0.00 0.00 0.00 32 1003.7
20260505204519 83 229 7.0 16.0 0.00 0.00 0.00 32 1003.7
20260505203026 83 284 5.0 13.0 0.00 0.00 0.00 34 1004.0
20260505201526 82 352 4.0 20.0 0.00 0.00 0.00 34 1004.1
20260505200010 82 26 3.0 18.0 0.00 0.00 0.00 37 1004.2
20260505194516 83 270 4.0 18.0 0.00 0.00 0.00 37 1004.1
20260505193031 82 109 4.0 14.0 0.00 0.00 0.00 38 1004.2